FALCON 9 R/B, 48839

Orbit data source: Space-Track

FALCON 9 R/B, 48839 is space debris in HEO originally from a launch on Sun, 06 Jun 2021 UTC launched from the Air Force Eastern Test Range (AFETR). Debris objects in space refer to the collection of defunct objects orbiting the Earth. Examples of debris include non-operational satellites, rocket bodies, and fragments generated from explosions, collisions, or faulty payload assembly.

Loading next visibility...
Identifier
48839, 2021-049B
Orbit
HEO
Country
Flag of USUS
Related business
Manufacturer
SpaceX
Mission
Spacecraft
Bus & Motor
F9ST2, Unknown motor
Mass
~4,000 kg wet, ~4,000 kg dry
Launch date (UTC)
2021-06-06 (5 years ago)
Launch vehicle
Unknown
Launch site
Air Force Eastern Test Range (AFETR)
Object type
Payload
Rocket body
Debris
Shape & HBR
Cyl, 7.8 m
Radar Cross Section
39.980 m², Large (>1 m²)

Expand to show TLE details & history
Last TLE update: 2 days ago

TLE from 2 days ago
0 FALCON 9 R/B
1 48839U 21049B   26171.33398927  .00038495  00000-0  96365-3 0  9990
2 48839  27.0286 202.0604 5121501 210.2424 106.3979  5.53383541 87167
Epoch: 2026-06-20T08:00Z
TLE epoch observation values (Epoch: 2026-06-20T08:00:56.672Z)
Latitude
-0.00002°
Longitude
173.27449°
Altitude
11,484.486 km
Speed
3.887 km/s
True Right ascension
13h 28m 14s
True Declination
0° 00' 00"
Sunlit
Object was in daylight at epoch
Visualization orbit readout
Latitude
Unknown
Longitude
Unknown
Altitude
Unknown
Speed
Unknown
Apparent Right ascension
Unknown
Apparent Declination
Unknown
Sunlit
N/A
Visualization observer readout
Local Sidereal Time
21:35:38
Azimuth
Unknown
Elevation
Unknown
Doppler factor
Unknown
Orbital elements
Apogee altitude
14,043.654 km
Perigee altitude
210.342 km
Semi-major axis
13,505.135 km
Eccentricity
0.51215
Inclination
27.0286°
RAAN
202.0604°
Arg. of periapsis
210.2424°
True anomaly
149.78196°
Mean anomaly
106.3979°
Eccentric anomaly
129.15308°
Mean motion
1.38291 °/min
Orbital period
260.32 mins
BSTAR
0.00096365
Loading maneuver chart data...
Computing Atmospheric mass density...
Loading historical data...
Loading historical data...
Loading historical data...
Loading historical data...
Loading historical data...
Loading historical data...
Loading historical data...
Other satellites on launch #49 in the year 2021 (2021-06-06 UTC)

Documentation

Showing up to 5 results
|